TimePST,TemperatureF,Dew PointF,Humidity,Sea Level PressureIn,VisibilityMPH,Wind Direction,Wind SpeedMPH,Gust SpeedMPH,PrecipitationIn,Events,Conditions,WindDirDegrees,DateUTC
12:56 AM,42.1,37.9,85,30.18,10.0,NNE,5.8,-,N/A,,Clear,20,2013-11-24 08:56:00
1:56 AM,39.0,37.0,93,30.19,10.0,NE,3.5,-,N/A,,Scattered Clouds,50,2013-11-24 09:56:00
2:56 AM,37.9,37.0,97,30.18,10.0,Calm,Calm,-,N/A,,Overcast,0,2013-11-24 10:56:00
3:56 AM,39.0,37.0,93,30.18,10.0,NW,4.6,-,N/A,,Partly Cloudy,320,2013-11-24 11:56:00
4:56 AM,36.0,35.1,97,30.19,10.0,North,3.5,-,N/A,,Scattered Clouds,360,2013-11-24 12:56:00
5:56 AM,37.0,35.1,93,30.21,10.0,Calm,Calm,-,N/A,,Clear,0,2013-11-24 13:56:00
6:56 AM,35.1,34.0,96,30.23,10.0,Calm,Calm,-,N/A,,Clear,0,2013-11-24 14:56:00
7:56 AM,39.9,37.9,93,30.24,10.0,WNW,3.5,-,N/A,,Clear,290,2013-11-24 15:56:00
8:56 AM,45.0,39.9,82,30.25,10.0,Calm,Calm,-,N/A,,Clear,0,2013-11-24 16:56:00
9:56 AM,50.0,39.9,68,30.25,10.0,Calm,Calm,-,N/A,,Clear,0,2013-11-24 17:56:00
10:56 AM,51.1,39.0,63,30.24,10.0,East,4.6,-,N/A,,Clear,100,2013-11-24 18:56:00
11:56 AM,52.0,39.9,63,30.22,10.0,ENE,5.8,-,N/A,,Clear,60,2013-11-24 19:56:00
12:56 PM,53.1,39.0,59,30.20,10.0,East,5.8,-,N/A,,Partly Cloudy,90,2013-11-24 20:56:00
1:56 PM,54.0,39.0,57,30.19,10.0,Calm,Calm,-,N/A,,Clear,0,2013-11-24 21:56:00
2:56 PM,55.0,37.9,53,30.20,10.0,Variable,3.5,-,N/A,,Clear,0,2013-11-24 22:56:00
3:56 PM,54.0,36.0,51,30.20,10.0,NE,5.8,-,N/A,,Clear,50,2013-11-24 23:56:00
4:56 PM,50.0,39.0,66,30.21,10.0,ENE,3.5,-,N/A,,Clear,60,2013-11-25 00:56:00
5:56 PM,46.9,39.9,77,30.23,10.0,Calm,Calm,-,N/A,,Clear,0,2013-11-25 01:56:00
6:56 PM,45.0,39.0,80,30.25,10.0,North,4.6,-,N/A,,Clear,350,2013-11-25 02:56:00
7:56 PM,41.0,37.9,89,30.27,10.0,WNW,3.5,-,N/A,,Clear,300,2013-11-25 03:56:00
8:56 PM,42.1,37.0,82,30.27,10.0,WSW,3.5,-,N/A,,Clear,250,2013-11-25 04:56:00
9:56 PM,41.0,36.0,82,30.27,10.0,WNW,8.1,-,N/A,,Clear,300,2013-11-25 05:56:00
10:56 PM,37.9,35.1,89,30.28,10.0,WNW,6.9,-,N/A,,Clear,290,2013-11-25 06:56:00
11:56 PM,37.0,34.0,89,30.27,10.0,West,5.8,-,N/A,,Clear,270,2013-11-25 07:56:00